Tracking 19145 objects as of 26-Apr-2018
HD Live streaming from Space Station
objects crossing your sky now

FENGYUN 1C DEB

Track FENGYUN 1C DEB now!
10-day predictions


NORAD ID: 39113
Int'l Code: 1999-025EWA
Perigee: 845.1 km
Apogee: 907.8 km
Inclination: 99.0 °
Period: 102.3 minutes
Semi major axis: 7247 km
RCS: 0.003 m2 (small)
Launch date: May 10, 1999
Source: People's Republic of China (PRC)
Launch site: Taiyaun Space Center, China (TSC)

Note: This is SATELLITE DEBRIS
aabbcc
Your satellite tracking list
Your tracking list is empty




NASA's NSSDC Master Catalog

Two Line Element Set (TLE):
1 39113U 99025EWA 18097.47505012  .00000307  00000-0  20882-3 0  9994
2 39113  99.0249 184.7312 0043207 336.0985  23.8177 14.07101923265579
Source of the keplerian elements: AFSPC